sat.trackr.live / text

‹ back to catalog

STARLINK-2606

NORAD 48386 · 2021-038AK

PAYLOAD ACTIVE UNKNOWN

§ Identity

Operator
Country
US
Launch date
2021-05-04
Launch site
AFETR
Launch vehicle
Mass (kg)
RCS (m²)

Purposes: comms

External: N2YO · Heavens-Above · Gunter

§ Orbital elements

Epoch: 2026-09-19T20:59:53.671200Z

Period
94.01 min
Inclination
53.1611°
Eccentricity
0.0001584
Mean motion
15.31715517 rev/d
Perigee alt
469.6 km
Apogee alt
471.8 km
Semi-major
6,848.8 km
B*
3.9599e-5
RAAN
161.8383°
Arg perigee
101.1278°
Mean anomaly
258.9902°
Rev number
29,700

§ Raw data

STARLINK-26061 48386U 21038AK  26262.87492675  .00000864  00000+0  39599-4 0  99952 48386  53.1611 161.8383 0001584 101.1278 258.9902 15.31715517297005

JSON: /api/v1/satellites/48386 · /tle

For live sub-satellite position, see the globe view (requires WebGL).

§ Visibility from observer

Set your observer location to see the next 7 days of passes ≥ 10°. The values pass through the URL so the page stays shareable.

No JS? Fill the form by hand. The geolocation button needs JavaScript.